Regional Weather Roundup
Issued by NWS

Home | Current Version | Previous Version | Graphics & Text | Print | Product List | Glossary On
Versions: 1 2 3 4 5 6 7 8 9 10 11 12 13 14 15 16 17 18 19 20 21 22 23 24 25 26 27
000
ASUS45 KSLC 260110
RWRUT

UTAH REGIONAL WEATHER ROUNDUP
NATIONAL WEATHER SERVICE SALT LAKE CITY UT
700 PM MDT SUN SEP 25 2016

UTZ001>011-023>025-260200-

NORTHERN UTAH

CITY           SKY/WX    TMP DP  RH WIND       PRES   REMARKS
BRIGHAM CITY     N/A     67  37  33 CALM      30.42S
HILL AFB       CLEAR     64  40  40 N3        30.43F
LOGAN          CLEAR     65  40  39 SW3       30.42S
OGDEN          CLEAR     64  41  42 CALM      30.41F
PROVO AIRPORT  CLEAR     62  48  60 NW13      30.41F
SALT LAKE CITY CLEAR     64  42  44 NW10      30.41S
VERNAL         CLEAR     59  40  49 CALM      30.44S
WENDOVER       CLEAR     64  37  36 SE3       30.46S
HEBER CITY     CLEAR     63  37  39 SW9       30.40S
WEST JORDAN    CLEAR     60  41  49 NW9       30.43F

$$

UTZ012>022-026-027-260200-

SOUTHERN/CENTRAL UTAH

CITY           SKY/WX    TMP DP  RH WIND       PRES   REMARKS
BLANDING       CLEAR     65  27  23 N8        30.43R
BRYCE CANYON     N/A     59  24  26 N14       30.45S
CEDAR CITY     CLEAR     64  35  34 N14       30.36R
DELTA          CLEAR     64  41  42 N13       30.39S
MILFORD        CLEAR     66  34  30 N21       30.36S
MOAB/CYNLANDS  CLEAR     69  35  28 NW9       30.32S
PRICE          CLEAR     63  37  38 SW3       30.41F
ST GEORGE      CLEAR     82  36  18 W3        30.18F

$$

REGIONAL REPORTS     COLORADO/ARIZONA

CITY           SKY/WX    TMP DP  RH WIND       PRES   REMARKS
CRAIG, CO      CLEAR     57  34  41 N3        30.47S
GRAND JUNCTION CLEAR     65  40  39 NW3       30.34S
RIFLE          CLEAR     64  37  36 W8        30.38S
MONTROSE       CLEAR     62  36  37 W3        30.40F
CORTEZ         CLEAR     63  37  38 SW8       30.34R
PAGE, AZ       CLEAR     73  29  19 NE9       30.28S
GRAND CANYON   CLEAR     62  31  31 NE10      30.38S
KINGMAN        CLEAR     81  28  14 NE15      30.14S
FLAGSTAFF      CLEAR     61  29  29 NE10      30.34S

$$

REGIONAL REPORTS    NEVADA/IDAHO/WYOMING

CITY           SKY/WX    TMP DP  RH WIND       PRES   REMARKS
LAS VEGAS, NV  CLEAR     87  24  10 NE15      30.09F
ELY            CLEAR     65  29  25 N15       30.44R
ELKO           CLEAR     73  31  21 E8        30.40F
POCATELLO, ID  CLEAR     62  36  37 CALM      30.44F
BURLEY         CLEAR     60  39  45 W5        30.42S
EVANSTON, WY   CLEAR     58  32  37 N5        30.51S
ROCK SPRINGS   CLEAR     55  33  43 SW8       30.47F

$$




USA.gov is the U.S. government's official web portal to all federal, state and local government web resources and services.